Wetbulb
60.19 58.36 56.39 53.88 52.73 51.25 50.11 48.39 47.42 45.22 41.31 40.15 40.10 39.83 39.10 38.65 39.33 41.99 42.32 52.17 54.97 56.74 58.23 58.83 59.42 59.37 59.89 60.09 60.88 60.63 60.14 58.35 58.79 58.31 59.16 60.66 60.02 60.90 60.60 60.85 60.83 61.25 61.48
60.50 57.30 55.01 54.04 51.49 50.57 48.98 47.90 46.68 42.72 40.11 39.35 39.35 39.23 38.90 38.53 39.25 41.78 42.43 47.39 55.31 56.43 57.63 58.25 59.01 60.33 59.48 60.77 61.52 61.39 59.51 57.75 58.53 56.95 56.72 57.86 59.60 59.90 59.04 58.46 57.30 58.14 59.53
57.28 55.35 54.89 53.42 52.96 50.14 48.63 46.70 44.27 40.60 38.69 38.33 37.88 38.55 38.44 38.41 38.73 40.56 42.61 45.78 48.43 54.24 56.55 56.41 58.01 59.20 59.23 61.70 62.55 60.90 59.30 57.01 57.20 55.55 55.66 57.38 57.09 58.50 57.78 55.76 56.50 56.94 57.32
58.29 54.59 53.91 53.67 53.38 49.92 48.17 45.05 41.72 39.32 37.95 36.73 35.74 36.20 36.75 37.84 38.21 38.84 40.42 44.31 45.55 47.07 50.39 53.17 54.72 57.78 59.55 61.14 59.82 59.56 58.66 56.64 57.72 54.52 56.01 57.60 57.61 57.03 56.44 55.69 55.75 55.56 55.87
57.93 56.58 54.14 53.65 52.07 50.56 46.29 44.85 39.33 39.08 36.94 35.79 35.88 35.04 35.28 36.19 36.96 39.01 38.43 41.75 41.46 43.59 43.91 48.27 48.84 50.18 53.81 57.88 59.28 59.62 59.09 57.06 55.53 54.98 55.41 54.42 54.44 54.46 54.44 54.33 54.34 54.32 55.04
55.33 54.34 52.97 51.78 50.87 48.58 44.74 40.82 39.52 37.08 36.75 36.13 37.46 35.73 34.11 35.41 35.60 35.26 36.66 38.45 37.36 38.91 41.00 41.78 40.39 42.89 49.98 53.58 58.21 59.33 59.31 56.85 55.54 55.05 53.81 53.46 53.36 53.74 53.23 53.26 53.57 53.76 53.89
54.26 52.55 51.87 50.47 48.60 47.48 46.16 43.39 38.09 37.11 35.46 34.56 33.78 33.08 33.05 34.02 34.49 34.30 35.21 35.44 35.62 36.54 36.72 37.83 38.51 40.38 43.19 52.03 56.24 58.99 58.92 56.88 55.84 54.19 53.08 52.92 52.74 52.54 52.69 52.77 52.42 52.82 53.11
54.00 51.83 50.10 48.89 47.52 45.09 43.15 40.98 40.10 35.65 35.86 34.85 33.12 30.79 30.13 32.14 33.18 34.31 34.27 34.85 34.07 34.80 35.36 36.43 36.64 38.25 40.99 43.58 47.12 56.37 57.99 57.67 56.17 54.32 53.01 52.31 51.65 51.85 52.31 52.40 52.30 52.43 52.66
48.54 50.21 49.87 47.02 45.85 44.69 43.25 41.49 39.71 39.13 36.35 34.15 33.90 33.60 27.89 28.53 29.11 31.30 32.67 33.25 33.33 32.71 33.60 34.49 35.71 36.60 39.40 41.75 46.59 50.88 56.85 56.89 56.02 54.05 53.02 51.61 51.32 51.36 51.64 51.76 51.67 51.78 52.01
39.71 41.46 44.32 46.80 45.29 43.58 42.87 41.60 40.96 39.72 37.85 36.10 33.40 35.35 33.34 31.94 29.18 28.86 30.60 31.46 32.27 32.88 32.18 32.77 33.67 34.96 37.83 40.29 43.58 45.75 50.37 55.64 54.57 53.05 51.62 51.01 50.76 51.06 51.18 51.19 51.13 51.07 51.24
36.96 36.59 37.12 38.50 41.42 43.73 42.09 40.98 39.96 38.64 38.30 37.65 35.66 32.63 31.43 31.80 30.92 29.22 28.87 28.69 30.10 31.29 32.87 33.33 33.23 33.74 35.83 38.89 38.60 41.50 49.67 52.25 51.62 50.66 49.61 49.17 49.40 50.27 50.79 50.76 50.65 50.68 50.62
35.01 34.97 35.24 35.19 36.10 37.19 39.08 40.92 39.81 39.21 38.77 38.20 37.12 35.65 35.02 31.92 30.90 30.51 27.80 27.92 27.73 29.56 30.22 31.36 32.45 33.83 34.10 37.19 39.13 41.31 47.51 49.89 49.19 47.97 47.49 47.00 47.47 48.66 49.73 50.23 50.43 50.37 49.91
31.26 31.92 32.74 32.94 33.73 34.27 35.07 36.49 37.79 37.90 37.85 37.83 38.17 38.26 37.21 36.33 34.27 32.35 30.58 27.97 27.50 28.46 28.32 29.44 33.00 33.07 34.28 35.42 36.86 39.76 43.97 47.58 47.87 46.97 45.91 45.55 45.98 46.79 47.88 49.00 49.46 49.10 48.81
29.55 30.58 30.89 31.17 31.45 32.46 32.97 33.37 33.48 33.57 34.04 35.43 35.80 36.60 37.76 38.42 35.56 36.23 34.58 30.10 28.62 26.54 27.00 28.05 29.42 32.19 33.91 34.70 36.44 39.36 38.38 44.60 46.31 46.37 45.29 44.40 44.77 45.45 46.00 47.19 47.75 47.31 46.97
29.40 28.72 28.85 28.84 29.41 30.03 30.21 30.72 30.67 30.49 30.69 31.29 31.93 32.59 33.53 35.32 34.85 35.70 36.01 35.29 34.10 30.92 32.71 27.51 28.01 30.30 33.77 33.96 35.71 36.10 35.67 40.47 44.05 44.73 44.41 43.79 43.87 44.37 44.87 45.51 46.17 46.07 46.04
26.54 26.85 27.10 27.98 28.21 27.85 27.54 27.66 28.21 29.33 29.49 30.23 31.53 30.66 30.88 32.15 32.55 33.24 35.34 35.41 33.72 33.95 31.18 30.93 28.74 29.54 32.42 34.10 34.85 34.95 34.45 36.48 41.47 43.37 43.61 43.25 43.12 43.34 43.87 44.20 44.73 44.94 45.18
25.67 26.20 26.34 26.65 26.50 26.66 27.00 26.21 25.99 26.73 27.24 28.29 29.22 29.55 29.88 30.60 31.15 31.43 30.40 32.26 34.39 34.02 31.74 34.45 29.06 28.91 28.93 31.60 31.66 33.76 33.11 32.47 34.85 40.55 42.43 42.65 42.42 42.39 42.69 43.27 43.72 43.78 44.13
27.50 25.38 25.76 25.41 25.71 25.63 26.14 25.87 25.70 25.57 25.34 26.19 27.56 28.44 28.78 31.40 29.25 29.73 29.99 30.21 29.66 32.07 32.56 31.22 33.45 26.37 28.10 30.36 32.39 30.97 31.08 31.47 30.97 36.29 39.99 41.27 41.65 41.67 41.68 42.23 42.63 42.49 42.42
25.78 25.25 25.17 24.49 24.64 24.71 24.83 25.40 25.65 25.83 26.10 26.61 27.09 27.37 27.93 28.60 29.21 30.30 30.86 30.54 30.83 32.01 31.07 30.74 31.30 26.74 27.92 28.69 27.96 29.06 30.10 29.14 29.10 32.84 38.51 39.99 40.94 41.03 41.03 41.26 41.70 41.50 41.26
23.65 23.85 23.87 24.08 24.56 24.43 24.44 24.43 24.43 24.60 25.11 26.54 27.36 27.83 28.20 27.97 28.16 28.93 30.82 31.50 31.50 30.74 30.98 30.00 30.18 30.37 26.32 27.32 29.71 28.75 26.99 27.17 27.08 28.77 33.03 35.65 38.24 39.50 40.54 40.54 40.79 40.09 39.89
23.70 23.38 22.90 22.72 22.85 23.48 24.06 23.72 24.47 24.17 24.14 24.44 25.42 26.58 27.92 28.99 30.91 31.21 29.71 30.26 31.55 31.35 31.12 30.26 29.72 29.62 26.30 25.00 27.47 28.42 28.82 27.93 27.46 28.97 27.27 29.35 31.89 33.96 35.82 39.46 37.92 38.78 39.35
20.35 20.25 19.96 19.79 19.51 21.90 25.16 26.41 26.14 24.06 24.08 23.51 22.98 24.10 25.12 26.40 28.49 31.69 32.66 33.55 33.32 30.44 30.80 30.88 30.61 29.77 30.02 27.95 29.32 29.27 28.03 26.65 24.93 28.37 26.02 26.12 29.13 29.74 32.10 34.09 37.82 38.84 39.06
16.53 16.09 16.33 16.68 16.53 17.39 21.90 23.33 23.92 22.37 21.91 21.66 22.14 22.70 23.10 24.79 26.10 26.62 29.29 31.30 31.61 33.60 35.97 32.56 30.68 30.84 30.89 31.63 29.95 28.11 27.47 29.03 28.89 25.99 27.41 25.72 27.31 27.91 30.58 32.02 36.85 38.93 39.12
12.78 12.54 12.54 12.53 12.60 14.41 18.73 19.54 19.76 17.86 17.35 17.94 19.08 20.74 21.65 22.02 22.82 23.43 23.79 24.78 26.78 28.29 29.31 31.50 32.98 33.26 33.34 33.61 31.16 30.22 30.75 29.38 30.87 26.03 28.14 25.36 28.07 25.60 28.67 29.87 35.10 37.47 38.99
9.00 8.48 10.12 9.28 8.27 8.87 14.64 16.53 17.10 14.46 14.78 14.98 16.85 17.43 17.99 18.50 21.57 24.03 21.67 21.02 22.33 24.83 30.42 33.51 34.73 35.67 36.93 37.78 36.18 31.21 28.54 27.64 26.15 27.52 25.45 25.55 24.24 24.97 25.90 26.57 28.39 35.58 38.21
7.85 8.13 7.40 7.30 6.91 5.83 12.04 14.69 15.77 13.16 11.35 12.79 14.45 16.50 19.07 19.13 21.85 23.32 20.52 19.73 18.99 21.29 24.19 26.96 28.66 30.99 34.35 34.45 36.71 34.73 30.47 27.72 27.10 26.77 26.36 24.03 24.07 24.08 21.81 25.78 26.47 28.69 33.34
MSLP
1018.87 1019.30 1019.68 1020.17 1020.49 1020.88 1021.19 1021.61 1021.93 1022.17 1022.27 1022.13 1022.02 1022.01 1022.09 1022.23 1022.35 1022.35 1022.35 1022.16 1022.06 1021.82 1021.55 1021.42 1021.40 1021.34 1021.39 1021.37 1021.43 1021.54 1021.59 1021.75 1021.90 1021.93 1021.86 1021.91 1021.72 1021.62 1021.74 1021.71 1021.80 1021.83 1021.75
1018.30 1018.93 1019.49 1020.03 1020.52 1020.78 1021.22 1021.58 1021.85 1022.20 1022.39 1022.38 1022.31 1022.25 1022.27 1022.21 1022.21 1022.32 1022.30 1022.21 1022.04 1021.87 1021.57 1021.40 1021.30 1021.22 1021.24 1021.24 1021.39 1021.71 1021.85 1022.18 1022.02 1022.19 1022.41 1022.22 1022.00 1022.06 1021.98 1021.99 1022.22 1022.19 1022.13
1018.16 1018.50 1018.95 1019.60 1020.15 1020.54 1021.00 1021.61 1022.07 1022.45 1022.75 1022.71 1022.53 1022.41 1022.46 1022.47 1022.47 1022.50 1022.50 1022.40 1022.22 1021.94 1021.61 1021.38 1021.27 1021.18 1021.13 1021.20 1021.34 1021.53 1021.84 1022.07 1022.16 1022.47 1022.65 1022.41 1022.19 1022.30 1022.24 1022.58 1022.45 1022.29 1022.27
1017.79 1018.33 1018.66 1018.95 1019.59 1020.27 1020.77 1021.37 1021.95 1022.49 1022.74 1022.88 1022.91 1022.90 1022.83 1022.68 1022.57 1022.49 1022.35 1022.22 1022.18 1022.00 1021.80 1021.66 1021.52 1021.22 1021.10 1021.14 1021.39 1021.65 1021.92 1022.07 1022.31 1022.67 1022.47 1022.39 1022.52 1022.61 1022.74 1022.83 1022.73 1022.77 1022.65
1017.62 1017.99 1018.41 1018.62 1019.08 1019.89 1020.60 1021.04 1021.69 1022.00 1022.60 1022.86 1022.98 1023.02 1022.95 1022.82 1022.58 1022.38 1022.43 1022.27 1022.17 1022.07 1022.03 1021.76 1021.68 1021.62 1021.45 1021.17 1021.20 1021.39 1021.64 1022.03 1022.47 1022.83 1022.74 1022.77 1022.76 1022.81 1023.04 1023.18 1023.06 1023.10 1022.98
1017.77 1018.13 1018.48 1018.90 1019.33 1019.98 1020.68 1021.17 1021.52 1021.97 1022.02 1022.26 1022.80 1023.14 1023.25 1023.06 1022.83 1022.68 1022.44 1022.33 1022.30 1022.20 1022.16 1022.09 1021.98 1021.79 1021.61 1021.45 1021.29 1021.04 1021.39 1021.79 1022.42 1022.68 1022.97 1023.09 1023.07 1023.16 1023.20 1023.36 1023.27 1023.17 1023.28
1018.11 1018.28 1018.67 1019.14 1019.67 1020.18 1020.18 1020.78 1021.36 1021.94 1022.34 1022.54 1023.14 1023.26 1023.01 1022.88 1022.90 1022.74 1022.58 1022.41 1022.26 1022.15 1022.20 1022.24 1022.27 1022.16 1021.87 1021.51 1021.26 1021.00 1021.15 1021.69 1022.12 1022.75 1022.96 1023.17 1023.29 1023.42 1023.39 1023.38 1023.46 1023.34 1023.33
1018.70 1018.78 1018.97 1019.21 1019.66 1020.23 1020.70 1020.99 1021.24 1021.83 1022.11 1022.41 1023.18 1023.87 1023.54 1022.82 1022.16 1022.11 1022.26 1022.19 1022.13 1022.11 1022.08 1021.94 1022.01 1022.02 1022.02 1021.85 1021.45 1021.04 1020.90 1021.22 1021.86 1022.51 1022.87 1023.04 1023.26 1023.40 1023.43 1023.39 1023.38 1023.42 1023.33
1019.91 1019.74 1019.51 1019.73 1020.03 1020.18 1020.59 1021.01 1021.31 1021.52 1021.84 1022.20 1022.19 1022.73 1023.63 1023.28 1022.54 1021.82 1021.78 1021.83 1021.91 1022.00 1021.91 1021.85 1021.78 1021.68 1021.74 1021.76 1021.53 1021.18 1020.81 1020.83 1021.42 1022.14 1022.54 1022.98 1023.18 1023.27 1023.26 1023.24 1023.36 1023.34 1023.29
1021.53 1021.37 1020.86 1020.48 1020.50 1020.71 1020.89 1020.90 1021.03 1021.47 1021.82 1022.10 1022.43 1022.33 1022.48 1022.62 1022.87 1022.57 1022.03 1021.79 1021.83 1021.76 1021.68 1021.68 1021.46 1021.38 1021.48 1021.54 1021.47 1021.31 1020.94 1020.78 1021.20 1021.82 1022.43 1022.74 1022.98 1022.99 1022.97 1023.08 1023.18 1023.21 1023.29
1022.42 1022.29 1022.16 1021.81 1021.39 1021.14 1021.19 1021.30 1021.18 1021.36 1021.50 1021.67 1021.75 1021.91 1022.11 1022.29 1022.43 1022.81 1022.47 1021.95 1021.90 1021.15 1021.13 1021.00 1021.10 1021.00 1020.78 1021.02 1021.37 1021.40 1021.08 1020.86 1021.26 1021.88 1022.24 1022.56 1022.68 1022.71 1022.74 1022.82 1022.94 1023.05 1023.16
1023.52 1023.08 1022.91 1022.73 1022.29 1021.86 1021.69 1021.56 1021.44 1021.44 1021.38 1021.41 1021.46 1021.56 1021.42 1021.40 1021.70 1022.03 1022.34 1022.02 1021.84 1020.87 1020.63 1020.71 1020.72 1020.44 1020.48 1020.55 1020.59 1020.81 1021.03 1021.04 1021.27 1021.66 1022.01 1022.33 1022.51 1022.50 1022.48 1022.54 1022.63 1022.77 1022.95
1024.74 1024.43 1023.93 1023.41 1022.99 1022.66 1022.31 1021.95 1021.67 1021.59 1021.54 1021.68 1021.43 1021.22 1021.03 1020.86 1020.84 1020.84 1021.17 1021.45 1021.55 1020.81 1020.43 1020.04 1019.90 1019.91 1019.98 1020.16 1020.23 1020.30 1020.40 1020.53 1020.83 1021.24 1021.62 1021.87 1022.22 1022.51 1022.54 1022.32 1022.29 1022.54 1022.76
1025.61 1025.32 1024.90 1024.40 1023.67 1023.07 1022.48 1022.24 1022.18 1022.00 1021.75 1021.66 1021.59 1021.42 1021.09 1020.48 1020.33 1020.38 1020.41 1020.89 1020.98 1020.78 1020.35 1019.79 1019.30 1019.32 1019.33 1019.39 1019.48 1019.84 1020.09 1019.96 1020.08 1020.45 1020.91 1021.38 1021.76 1021.97 1022.14 1022.21 1022.29 1022.40 1022.54
1025.82 1025.20 1025.27 1025.15 1024.41 1023.62 1023.22 1022.81 1022.54 1022.21 1022.13 1021.79 1021.51 1021.17 1021.05 1020.69 1020.13 1019.85 1019.86 1020.01 1020.07 1019.81 1018.82 1018.98 1019.26 1018.45 1018.49 1018.71 1018.76 1019.14 1019.30 1019.39 1019.57 1019.87 1020.21 1020.68 1021.07 1021.51 1021.84 1021.88 1021.86 1022.08 1022.38
1026.00 1025.72 1025.30 1025.27 1024.91 1024.10 1023.59 1023.10 1022.78 1022.54 1022.28 1021.73 1021.37 1021.12 1020.67 1020.18 1019.82 1019.58 1019.45 1019.39 1019.38 1019.19 1017.92 1017.78 1017.84 1017.56 1017.50 1017.66 1018.03 1018.43 1018.62 1019.07 1019.08 1019.24 1019.55 1020.03 1020.34 1020.80 1021.14 1021.47 1021.60 1021.78 1021.94
1026.29 1026.31 1025.94 1025.04 1024.92 1024.55 1023.82 1023.33 1023.01 1022.42 1022.18 1021.96 1021.29 1020.81 1020.26 1019.75 1019.56 1019.04 1018.89 1018.86 1018.75 1018.70 1017.80 1017.14 1017.21 1016.92 1017.16 1017.30 1017.53 1017.69 1018.03 1018.40 1018.55 1018.68 1018.89 1019.26 1019.74 1020.04 1020.47 1020.69 1020.98 1021.20 1021.46
1025.98 1026.27 1025.88 1025.14 1024.81 1024.77 1024.02 1023.11 1022.89 1022.63 1022.18 1021.50 1020.90 1020.51 1019.90 1019.25 1018.89 1018.63 1018.24 1018.10 1017.96 1017.91 1017.74 1016.75 1016.92 1016.85 1016.60 1016.39 1016.47 1016.86 1017.20 1017.38 1017.67 1017.83 1018.28 1018.53 1018.94 1019.41 1019.87 1020.24 1020.41 1020.56 1020.77
1026.19 1025.94 1025.58 1025.17 1024.51 1024.08 1023.63 1022.99 1022.40 1022.00 1021.72 1021.37 1020.86 1020.32 1019.47 1019.00 1018.39 1017.92 1017.38 1017.17 1017.11 1016.74 1016.67 1016.55 1016.08 1016.21 1015.88 1015.82 1016.18 1016.33 1016.46 1016.69 1017.16 1017.39 1017.60 1017.67 1017.92 1018.43 1018.98 1019.51 1019.83 1020.02 1020.18
1026.16 1025.69 1025.17 1024.60 1024.29 1023.94 1023.24 1022.64 1022.27 1021.60 1021.14 1020.74 1020.02 1019.69 1018.79 1018.38 1017.97 1017.19 1016.70 1016.30 1016.34 1016.12 1015.96 1015.48 1015.31 1015.61 1015.54 1015.13 1014.85 1015.35 1015.99 1015.98 1016.26 1016.65 1016.89 1016.99 1017.30 1017.56 1017.94 1018.38 1018.81 1019.23 1019.65
1025.80 1025.22 1024.76 1024.30 1023.85 1023.25 1022.67 1022.27 1021.82 1021.15 1020.53 1019.98 1019.36 1018.92 1017.87 1017.48 1017.03 1016.59 1016.42 1015.71 1015.50 1015.43 1015.04 1014.89 1014.30 1014.51 1014.72 1014.69 1013.62 1013.67 1014.21 1015.22 1015.43 1015.59 1015.92 1016.08 1016.62 1016.78 1016.84 1017.14 1017.58 1018.10 1018.74
1025.69 1025.18 1024.67 1024.15 1023.32 1022.73 1022.34 1022.08 1021.61 1020.94 1020.29 1019.48 1018.58 1017.70 1016.98 1016.87 1016.06 1015.61 1015.27 1014.99 1014.83 1014.47 1013.93 1013.81 1013.33 1013.13 1012.59 1012.70 1013.21 1012.94 1013.08 1014.00 1014.59 1014.32 1015.22 1015.28 1015.53 1015.63 1015.79 1015.98 1016.11 1016.74 1017.16
1025.67 1025.14 1024.62 1024.09 1023.17 1022.65 1022.28 1021.65 1021.04 1020.19 1019.27 1018.42 1017.63 1016.86 1016.13 1015.79 1015.34 1014.83 1014.33 1013.97 1013.64 1013.34 1012.66 1012.67 1012.08 1011.54 1011.38 1011.20 1011.72 1012.17 1011.83 1011.69 1011.44 1012.65 1013.72 1013.87 1014.35 1013.87 1014.04 1014.75 1015.16 1015.39 1016.08
1025.86 1025.29 1024.67 1024.29 1023.54 1022.81 1022.22 1021.46 1020.71 1019.75 1018.76 1017.86 1017.23 1016.60 1015.94 1015.16 1014.85 1014.73 1014.26 1013.45 1012.57 1012.10 1011.62 1011.22 1010.57 1010.37 1010.02 1010.29 1010.29 1010.35 1010.54 1010.71 1010.89 1011.33 1011.54 1012.13 1012.22 1012.35 1013.13 1013.48 1013.76 1014.19 1014.81
1025.86 1025.30 1024.75 1024.06 1023.58 1022.82 1022.32 1021.34 1020.34 1019.39 1018.32 1017.44 1016.95 1016.31 1015.73 1014.97 1014.53 1014.26 1013.54 1012.48 1011.69 1010.71 1010.07 1009.84 1009.54 1009.17 1008.84 1008.82 1009.18 1009.65 1009.98 1010.19 1010.08 1010.10 1010.72 1010.62 1011.29 1011.76 1012.01 1012.35 1012.72 1013.09 1013.33
1025.71 1025.14 1024.37 1024.02 1023.36 1022.45 1021.80 1020.83 1019.80 1018.78 1017.61 1016.79 1016.15 1015.40 1014.87 1014.19 1013.51 1013.06 1012.55 1011.92 1010.77 1009.28 1009.62 1008.90 1008.32 1007.69 1007.52 1007.60 1007.79 1007.93 1008.51 1008.40 1008.28 1009.17 1009.01 1009.80 1010.46 1011.13 1011.81 1011.36 1011.79 1012.23 1012.70
Wind_Speed
5 4 4 4 4 4 4 4 4 4 3 3 4 5 5 4 4 2 1 3 4 5 8 8 6 6 6 6 8 8 7 4 3 3 3 7 4 5 7 9 9 8 5
7 6 5 5 4 4 4 4 5 5 4 3 3 3 4 3 4 4 3 2 2 3 7 7 7 8 7 9 10 9 8 3 5 5 2 1 7 8 8 10 3 3 4
5 6 6 6 5 5 6 4 2 1 1 2 3 3 3 3 3 4 4 3 1 2 4 1 7 7 8 5 13 9 9 7 5 4 4 4 5 7 8 3 2 3 1
7 6 5 6 7 5 5 4 4 3 3 3 2 3 3 3 4 4 4 3 3 1 2 2 4 9 12 12 7 8 8 6 7 3 5 5 6 6 6 3 3 2 2
6 6 4 5 8 6 4 5 3 4 4 3 3 3 3 3 4 3 5 4 4 3 2 2 1 4 3 7 10 13 11 8 5 6 3 3 3 2 4 4 4 3 4
5 4 3 4 5 4 3 3 3 1 2 4 2 2 3 4 4 4 4 3 4 4 3 4 3 3 6 4 11 12 12 9 9 7 6 6 6 6 3 4 6 5 5
2 4 2 3 3 4 7 8 3 4 1 2 3 2 2 5 6 5 4 5 5 5 4 4 3 3 4 8 11 13 14 11 11 10 8 8 8 8 8 7 6 7 7
5 1 2 4 4 3 3 4 4 2 3 4 4 2 3 4 5 6 5 5 7 4 5 6 6 6 5 4 6 14 17 16 15 12 11 10 8 9 10 8 7 8 8
13 10 5 3 1 2 4 4 3 5 4 4 5 5 1 6 3 1 6 5 6 5 5 5 6 6 6 5 7 9 14 17 17 15 13 12 11 10 11 9 9 8 7
12 13 12 10 4 1 3 4 4 4 2 4 2 6 3 4 3 5 2 4 4 6 6 5 6 6 6 4 8 8 10 14 15 16 14 13 13 13 12 11 10 9 8
12 13 10 10 9 5 4 5 3 5 4 3 4 3 3 2 1 2 5 4 2 5 6 7 6 6 7 6 5 6 9 10 13 14 15 14 14 13 13 12 12 11 10
9 13 12 10 8 8 7 5 5 5 5 6 4 4 4 5 5 4 4 5 5 5 5 5 7 7 6 6 9 12 12 15 17 17 15 15 15 16 15 15 14 13 11
8 12 12 11 8 8 8 7 5 5 5 5 7 8 6 6 2 3 3 3 4 4 3 5 8 6 6 6 8 14 16 19 20 19 17 17 17 17 17 16 16 14 13
7 9 9 9 10 9 9 8 4 5 5 4 8 9 9 7 5 8 7 5 6 4 3 6 4 7 8 7 11 17 10 20 22 21 20 20 19 19 19 18 16 15 14
6 8 9 10 10 9 9 8 5 6 5 5 6 6 7 8 5 5 7 8 11 13 15 5 5 8 9 7 11 11 11 18 23 23 22 22 21 21 20 20 19 17 16
7 8 8 9 10 9 8 8 7 7 6 5 5 6 6 5 6 5 7 7 8 12 16 5 7 7 9 9 10 12 12 15 22 23 23 23 23 22 22 21 20 19 18
6 8 9 8 9 9 8 6 7 8 9 9 7 6 7 7 6 5 4 6 8 8 14 11 4 6 6 10 7 11 9 11 11 23 23 24 24 23 24 23 22 21 20
7 6 8 9 9 10 9 8 10 8 9 11 12 9 8 6 7 6 5 7 7 8 10 17 9 5 9 9 12 12 10 10 10 19 26 25 25 24 24 24 23 22 21
7 9 9 9 11 12 12 12 11 12 11 11 11 12 12 8 9 7 8 8 7 7 8 11 12 4 6 3 3 5 9 9 7 16 26 26 25 26 25 25 25 23 21
7 8 8 10 11 12 12 12 12 12 13 13 13 13 13 12 12 10 9 10 9 8 9 9 11 9 5 4 6 8 7 7 9 9 17 17 20 23 27 27 26 23 21
10 11 12 12 12 12 10 12 13 14 14 16 16 15 14 15 20 19 11 11 10 10 9 10 11 9 7 4 9 6 11 7 10 9 10 11 10 11 14 24 20 23 24
13 14 14 15 16 12 22 26 22 15 16 16 17 16 15 18 19 25 26 28 22 12 14 11 11 13 16 10 8 9 9 8 8 9 9 11 11 13 12 13 23 27 28
14 14 15 15 17 17 27 29 29 17 17 17 18 17 16 13 15 15 19 26 27 28 29 19 18 17 16 11 10 12 12 14 13 4 13 13 12 16 12 13 28 29 29
13 14 14 15 16 14 28 30 30 19 17 19 19 19 18 18 17 18 18 19 18 17 19 16 20 22 17 14 10 13 14 15 11 4 14 10 11 15 11 11 29 31 29
13 13 14 15 15 15 26 28 25 16 16 18 17 18 18 20 26 31 23 21 21 21 21 28 31 32 29 28 21 7 11 10 12 11 11 3 4 8 9 12 12 32 30
14 12 14 14 16 16 24 27 23 12 15 13 15 17 23 24 31 32 22 20 21 22 18 18 17 21 27 23 29 17 12 15 14 10 9 11 6 5 3 7 10 11 15
Wind_Direction
178 166 173 174 178 165 171 171 176 189 214 205 188 175 170 167 172 173 208 243 277 264 217 208 204 205 200 196 186 174 158 124 121 92 25 48 94 88 78 67 47 27 6
176 177 170 179 185 176 176 177 180 190 209 205 209 199 195 180 177 185 197 247 246 287 229 214 215 206 204 204 194 170 154 129 132 106 290 170 88 98 83 60 33 2 9
183 174 172 173 193 179 164 158 170 158 245 286 224 208 197 207 198 195 200 205 220 39 62 203 230 220 227 207 178 188 161 169 185 128 236 188 190 120 95 174 139 151 140
185 177 177 184 187 170 168 166 163 178 205 209 223 242 236 225 223 218 210 205 210 212 31 44 14 255 224 201 199 198 177 176 183 175 207 137 126 118 101 100 89 109 105
190 186 192 191 174 175 174 175 159 158 181 205 227 237 247 244 239 233 225 216 214 213 221 259 309 333 320 224 201 216 190 195 198 221 186 207 193 149 170 194 178 188 179
174 163 171 167 155 160 151 157 161 168 176 170 173 241 298 279 266 249 231 229 231 232 231 241 264 266 273 257 227 199 199 195 213 199 206 208 202 203 196 192 202 188 196
145 155 167 143 144 194 192 188 133 177 209 136 94 341 272 255 261 245 236 234 231 223 221 234 246 266 277 259 242 220 210 212 205 203 206 213 210 211 208 210 209 205 199
15 18 191 194 172 159 160 178 168 152 181 178 143 62 294 303 246 219 222 222 227 219 223 220 226 237 247 258 250 232 222 206 201 206 210 210 214 217 215 209 206 206 199
12 6 6 24 353 162 190 201 197 194 201 215 209 157 82 246 338 342 238 225 218 218 225 225 230 229 229 238 249 245 236 216 197 203 203 211 216 216 214 209 210 207 200
27 20 12 6 354 341 253 220 207 228 143 209 258 247 207 160 219 319 295 255 231 236 221 229 224 225 225 226 241 246 250 205 192 196 204 206 213 214 211 210 207 206 203
18 17 13 14 10 357 321 283 245 212 207 211 208 191 203 203 153 171 284 305 309 237 229 221 219 227 206 202 222 243 219 178 179 194 203 208 217 216 213 207 207 205 203
10 13 8 4 1 6 358 329 295 277 250 244 256 235 213 190 198 195 229 253 239 267 236 214 220 226 213 208 204 206 214 194 192 200 202 213 220 219 214 209 206 202 200
9 1 360 2 1 354 350 350 338 310 289 268 262 257 248 249 202 188 172 235 254 263 286 228 225 219 215 209 212 201 207 204 205 208 209 209 216 222 223 213 205 202 200
359 352 352 352 355 357 359 356 345 328 310 288 278 272 271 262 209 236 238 189 267 272 254 253 231 218 221 210 212 205 210 210 211 212 210 212 215 216 217 218 213 206 201
354 359 351 344 345 350 353 353 344 333 326 299 279 265 261 271 259 242 239 239 252 266 261 236 244 216 221 211 213 205 208 214 212 214 212 212 212 216 218 217 211 207 204
347 345 344 339 334 338 342 348 339 328 322 308 292 276 267 255 257 256 249 245 242 258 270 205 220 222 214 215 213 207 211 208 212 214 213 214 212 215 216 217 215 211 207
334 330 327 331 325 317 321 332 323 318 321 307 295 279 271 265 266 248 230 249 252 248 262 269 235 220 212 208 204 210 203 204 213 215 216 214 216 215 217 215 214 212 210
325 306 312 322 318 311 312 314 308 301 299 305 305 301 281 282 265 255 246 238 227 245 257 270 260 234 217 212 212 205 208 211 208 215 214 217 218 218 219 219 216 213 210
302 304 305 304 308 308 308 310 306 301 294 284 283 284 287 286 276 262 261 262 257 245 238 259 265 230 221 186 182 215 207 210 208 212 217 218 218 219 218 219 218 215 211
286 294 293 298 296 294 295 300 296 295 293 292 288 279 277 276 274 275 266 264 263 256 255 250 257 255 225 211 198 201 210 204 208 208 221 218 218 218 219 219 219 214 211
315 310 307 302 297 293 295 300 300 301 299 293 290 284 281 272 268 269 269 265 257 254 251 254 258 247 225 222 213 180 215 204 221 209 209 211 206 213 217 221 218 211 210
315 313 309 307 304 300 305 305 301 291 286 284 284 285 286 283 279 273 273 273 263 256 254 247 247 247 246 223 226 213 199 195 225 197 200 216 202 214 214 212 209 209 206
313 309 307 307 303 306 310 307 306 299 295 288 285 284 282 278 280 280 280 276 272 267 255 250 251 244 248 235 207 210 206 209 224 150 191 220 202 223 208 211 210 208 209
306 306 305 305 300 303 309 309 305 297 292 289 287 286 284 284 281 285 286 281 270 261 256 254 249 253 247 245 224 219 213 221 231 176 185 210 190 221 208 208 210 210 209
301 300 298 302 301 299 303 302 303 296 287 286 286 284 283 282 282 281 277 276 276 272 265 258 253 253 251 244 237 225 224 210 227 219 194 199 190 205 203 208 208 212 209
293 298 295 295 294 294 297 299 299 289 285 286 284 284 282 282 282 280 273 270 270 266 266 263 257 258 254 249 242 220 210 221 222 232 192 202 161 150 203 214 202 207 207